Content
SEND FEEDBACK

Daily
Averages
Monthly
Summary
Indonesia

BAMBOEAPOES, INDONESIA


Home > Asia > Indonesia
Elevation: 30 meters     Latitude: 06 18S     Longitude: 106 54E

WEATHER
 
SELECT A DAY
Number of Records: 232,606;   Date Range: 9/17/97 - 10/21/14
 
SHARE

PRINT THIS DATA

[ ← Previous Day ]
WEATHER ALMANAC - 23 JANUARY, 2013
[ Next Day → ]
[ °F ]   °C
Weather ElementAverageHighLow
Temperature24.9 °C30 °C (1:00 pm) (3:00 pm)
Dewpoint23.1 °C25 °C (8:30 am) (7:00 pm)
Humidity89.1 %100 % (1:30 am)69 % (1:00 pm)
Barometer973.9 hPa1012.5 hPa (1:00 am) (7:00 pm)
Wind Speed13 km/h37 km/h (5:00 pm)
Weather ElementAverage
Visibility6.9 km
Wind DirectionWSW (260.9 °)

Weather ElementTotal
Precipitation---
Heating Degree Days12.2 (Base 18.3)
Averaged from 55 records on 23 January, 2013
WEATHER CONDITIONS BREAKOUT
WIND DIRECTION BREAKOUT
WEATHER BY HOUR - 23 JANUARY, 2013
[ °F ]   °C
Local TimeTemperatureDewpointHumidityBarometerVisibilityWind DirectionWind SpeedGust SpeedPrecipitationEventsConditions
12:30 AM24 °C23 °C94 %1012.2 hPa4 kmWSW (250°)14.8 km/hDrizzle
1:00 AM24.4 °C23.3 °C94 %1012.5 hPa4.8 kmWest (280°)9.3 km/hRainLight Rain
1:00 AM24 °C23 °C94 %1012.2 hPa4.5 kmWest (280°)9.3 km/hRainLight Rain
1:30 AM24 °C24 °C100 %1011.2 hPa5 kmNNW (330°)7.4 km/hRainLight Rain
2:00 AM24 °C24 °C100 %1011.2 hPa5 kmWest (260°)5.6 km/hLight Drizzle
2:30 AM24 °C24 °C100 %1011.2 hPa5 kmWSW (250°)5.6 km/hLight Drizzle
3:00 AM24 °C24 °C100 %1010.2 hPa6 kmSW (230°)5.6 km/hPartly Cloudy
3:30 AM24 °C24 °C100 %1010.2 hPa3.1 kmWSW (240°)9.3 km/hScattered Clouds
4:00 AM24.4 °C23.3 °C93 %1010.5 hPa4.8 kmWSW (240°)7.4 km/hMist
4:00 AM24 °C24 °C100 %1010.2 hPaWSW (240°)7.4 km/hScattered Clouds
4:30 AM24 °C24 °C100 %1010.2 hPa4 kmWSW (240°)5.6 km/hScattered Clouds
5:00 AM24 °C24 °C100 %1010.2 hPa3.1 kmSW (220°)5.6 km/hPartly Cloudy
5:30 AM24 °C24 °C100 %1010.2 hPa3.1 kmWest (260°)5.6 km/hMostly Cloudy
6:00 AM24 °C24 °C100 %1010.2 hPa2.7 kmSouth (180°)7.4 km/hPartly Cloudy
6:30 AM25 °C24 °C94 %1011.2 hPaSSW (210°)7.4 km/hPartly Cloudy
7:00 AM25 °C23.9 °C93 %1011.2 hPa4.8 kmWSW (240°)5.6 km/hHaze
7:00 AM25 °C24 °C94 %1011.2 hPa4 kmWSW (240°)5.6 km/hPartly Cloudy
7:30 AM26 °C24 °C89 %1011.2 hPaSSW (200°)7.4 km/hHaze
8:00 AM27 °C24 °C84 %1011.2 hPa5 kmWest (270°)13 km/hHaze
8:30 AM28 °C25 °C84 %1011.2 hPa8 kmWNW (290°)11.1 km/hPartly Cloudy
9:00 AM28 °C24 °C79 %1012.2 hPa10 kmWNW (300°)13 km/hPartly Cloudy
9:30 AM28 °C24 °C79 %1012.2 hPa9 kmNW (320°)14.8 km/hMostly Cloudy
10:00 AM28.3 °C23.9 °C72 %1011.9 hPa9.7 kmWNW (290°)16.7 km/hPartly Cloudy
10:00 AM29 °C24 °C74 %1012.2 hPa10 kmNNW (330°)16.7 km/hScattered Clouds
10:30 AM29 °C24 °C74 %10 kmNNW (330°)18.5 km/hMostly Cloudy
11:00 AM29 °C24 °C74 %1011.2 hPa10 kmNNW (330°)14.8 km/hMostly Cloudy
11:30 AM29 °C24 °C74 %1010.2 hPa10 kmNNW (330°)18.5 km/hPartly Cloudy
12:00 PM29 °C24 °C74 %1010.2 hPa10 kmNW (320°)16.7 km/hPartly Cloudy
12:30 PM29 °C25 °C79 %1010.2 hPa10 kmNNW (330°)18.5 km/hScattered Clouds
1:00 PM29.4 °C24.4 °C69 %1009.5 hPa9.7 kmNW (310°)18.5 km/hPartly Cloudy
1:00 PM30 °C25 °C74 %1009.1 hPa10 kmNNW (330°)14.8 km/hPartly Cloudy
1:30 PM30 °C25 °C74 %1009.1 hPa9 kmNNW (330°)16.7 km/hScattered Clouds
2:00 PM29 °C24 °C74 %9 kmNNW (330°)11.1 km/hThunderstormThunderstorm
2:30 PM28 °C24 °C79 %1009.1 hPa9 kmSouth (180°)9.3 km/hThunderstormThunderstorm
3:00 PM-17.8 °C-17.8 °C1009.1 hPa0.3 kmWSW (250°)35.2 km/hRain-ThunderstormHeavy Thunderstorms and Rain
3:30 PM25 °C24 °C94 %1009.1 hPaWest (280°)9.3 km/hRain-ThunderstormThunderstorms and Rain
4:00 PM24.4 °C23.9 °C96 %1008.5 hPa6.4 kmSE (140°)7.4 km/hRainLight Rain
4:00 PM25 °C24 °C94 %1008.1 hPa6 kmNE (40°)5.6 km/hRainLight Rain
4:30 PM25 °C24 °C94 %1009.1 hPa6.9 kmSouth (190°)5.6 km/hRainLight Rain
5:00 PM25 °C24 °C94 %1009.1 hPa8 kmWSW (250°)37 km/hRainLight Rain
5:30 PM25 °C23 °C89 %1010.2 hPa8 kmWSW (250°)33.3 km/hRainLight Rain
6:00 PM24 °C23 °C94 %1010.2 hPa6.9 kmWest (260°)22.2 km/hRainLight Rain
6:30 PM24 °C23 °C94 %1010.2 hPa8 kmWSW (250°)27.8 km/hRainLight Rain
7:00 PM24.4 °C23.3 °C93 %1010.8 hPa9.7 kmWSW (250°)16.7 km/hRainLight Rain
7:00 PM24 °C23 °C94 %1010.2 hPa9 kmWest (260°)16.7 km/hRainLight Rain
7:30 PM24 °C23 °C94 %1011.2 hPa9 kmWSW (250°)13 km/hMostly Cloudy
8:00 PM25 °C23 °C89 %1011.2 hPa6 kmWSW (240°)14.8 km/hMostly Cloudy
8:30 PM25 °C23 °C89 %1011.2 hPa6.9 kmWSW (250°)13 km/hScattered Clouds
9:00 PM25 °C23 °C89 %1012.2 hPa6.9 kmWest (270°)16.7 km/hRainLight Rain Showers
9:30 PM25 °C23 °C89 %1012.2 hPa6.9 kmWNW (290°)11.1 km/hRainLight Rain Showers
10:00 PM24.4 °C23.3 °C93 %1012.5 hPa9.7 kmWSW (250°)14.8 km/hRainLight Rain
10:00 PM25 °C23 °C89 %1012.2 hPa6.9 kmWest (260°)13 km/hScattered Clouds
10:30 PM25 °C24 °C94 %1012.2 hPa6.9 kmWNW (290°)11.1 km/hRainLight Rain Showers
11:00 PM25 °C24 °C94 %1012.2 hPa6.9 kmWest (270°)9.3 km/hScattered Clouds
11:30 PM24 °C23 °C94 %1012.2 hPa6.9 kmWSW (250°)11.1 km/hRainLight Rain Showers
Hourly data recorded from WIII, located 0 kilometers away from Bamboeapoes, Indonesia







STORIES FROM OUR PARTNERS